map of POP home
Great Circle Mapper logo
POP - Airport
Location
City:  Puerto Plata, Dominican Republic
Name:Gregorio Luperón International Airport
ICAO / IATA:MDPP / POP

Details
Type:Airport (Aerodrome, Airfield)
Use:Public/Civil, Military, International (customs port of entry)
Latitude:19°45'28"N (19.757900)
Longitude:70°34'12"W (-70.570032)
Datum:WGS 1984
Elevation:15 ft (5 m)
Runways:1
Longest:10108 × 151 ft (3081 × 46 m), paved

Time
Time Zone:UTC-4
Local Time:

Weather
METAR:MDPP 190600Z 11006KT 9999 FEW018 SCT300 26/25 Q1013 METAR MDST 190600Z 11004KT 9999 FEW022 25/24 Q1014
TAF:MDPP 182200Z 1900/2024 09010KT 9999 FEW018CB SCT020 SCT300 PROB40 1900/1906 7000 -SHRA FEW016CB BKN018 BKN070
BECMG 1910/1912 00000KT

Related Locations
Nearby:
Farthest:EXM: 12103 mi / 19479 km
Exmouth Gulf, WA, AU

Find:

   beyond  
but within

Other Information
Maps:
NOTAMs:
Links:
Sources:

  
flag of Dominican Republic   

Sectional Chart

Flight Planning
at skyvector.com

Satellite Image

Google Maps Satellite View

 

Copyright © 2004-2014 Karl L. Swartz. All rights reserved.
The Great Circle Mapper name and logo are trademarks of the Great Circle Mapper.
All other trademarks mentioned herein belong to their respective owners.
Please see credits for attibutions and further copyright information.

  Follow gcmap on Facebook Follow gcmap on Twitter

hCard Microformat

Geo Microformat